This is the latest recevied weather packets stored in our database for station/object BG5HLN-13. If no packets are shown the sender has not sent any weather packets the latest 10 day(s).
| Time | Temp. | Humidity | Pressure | Rain* | Wind** | Luminosity | Snow |
|---|---|---|---|---|---|---|---|
| 1788157596 | 99° F | 72% | 752.2 mmHg | 1.14 in | - | - | - |
| 1788156995 | 99° F | 72% | 752.2 mmHg | 1.46 in | - | - | - |
| 1788156395 | 100° F | 71% | 752.3 mmHg | 1.45 in | - | - | - |
| 1788155795 | 101° F | 71% | 752.3 mmHg | 1.76 in | - | - | - |
| 1788155194 | 102° F | 69% | 752.4 mmHg | 1.04 in | - | - | - |
| 1788154594 | 103° F | 66% | 752.4 mmHg | 0.98 in | - | - | - |
| 1788153994 | 103° F | 65% | 752.4 mmHg | 1.36 in | - | - | - |
| 1788153394 | 102° F | 65% | 752.5 mmHg | 1.96 in | - | - | - |
| 1788152795 | 103° F | 66% | 752.5 mmHg | 3.26 in | - | - | - |
| 1788152194 | 102° F | 67% | 752.5 mmHg | 3 in | - | - | - |
| 1788151594 | 102° F | 66% | 752.5 mmHg | 2.75 in | - | - | - |
| 1788150994 | 101° F | 67% | 752.6 mmHg | 2.74 in | - | - | - |
| 1788150395 | 101° F | 68% | 752.7 mmHg | 2.31 in | - | - | - |
| 1788149795 | 100° F | 69% | 752.8 mmHg | 1.4 in | - | - | - |
| 1788149194 | 100° F | 70% | 752.8 mmHg | 0.07 in | - | - | - |
| 1788148594 | 99° F | 71% | 752.8 mmHg | 0.01 in | - | - | - |
| 1788147994 | 99° F | 70% | 752.9 mmHg | 0.01 in | - | - | - |
| 1788147394 | 98° F | 71% | 752.9 mmHg | 0.01 in | - | - | - |
| 1788146794 | 97° F | 72% | 752.9 mmHg | 0.01 in | - | - | - |
| 1788146194 | 95° F | 73% | 753.1 mmHg | 0 in | - | - | - |
| 1788145594 | 94° F | 75% | 753.1 mmHg | 0 in | - | - | - |
| 1788144994 | 93° F | 78% | 753.1 mmHg | 0 in | - | - | - |
| 1788144394 | 93° F | 79% | 753.1 mmHg | 0 in | - | - | - |
| 1788143793 | 93° F | 79% | 753.1 mmHg | 0 in | - | - | - |
| 1788143194 | 93° F | 79% | 753.1 mmHg | 0 in | - | - | - |
* Rain latest hour (hover to see other rain measurements)
** Current wind speed in m/s (hover to see current wind gust speed)